Wind_Speed
5 5 4 4 2 3 4 3 3 3 5 6 6 7 7 7 8 8 7 7 6 5 6 5 3 4 4 5 4 4 4 4 4 3 2 1 2 3 3 6 6 4 3 2 3 3 3 3 3 3 3 3 2 2 1 2 3 3 3 2 2 2 3 4 5 4 3 3 2 1 1 2 2 1 1 2 2 1 2 2 2 3 4 4 5
6 5 4 4 3 2 3 3 3 3 4 5 5 6 7 7 7 6 5 5 5 5 5 5 4 3 4 5 4 4 4 4 4 2 1 1 1 2 3 4 5 4 3 2 2 2 3 2 2 2 3 2 1 1 2 2 3 4 3 2 2 2 3 4 4 4 4 4 3 3 3 3 3 2 1 1 1 1 1 1 1 1 3 4 4
6 5 4 3 3 2 2 2 3 3 4 4 5 6 7 7 5 5 5 4 5 5 5 4 3 3 3 5 4 5 5 5 2 3 0 1 1 2 2 1 3 4 3 3 2 2 1 1 2 1 1 2 0 1 1 1 2 3 3 3 2 1 2 3 3 4 4 4 4 4 4 3 3 3 2 2 2 2 2 2 2 3 3 3 4
6 5 4 3 2 2 1 2 4 4 4 5 5 6 6 6 5 5 5 4 4 5 5 4 3 3 3 5 4 5 6 4 1 4 2 2 2 1 1 0 1 3 4 3 2 2 1 1 1 1 1 1 1 1 0 0 0 2 2 2 2 1 0 1 1 2 3 3 3 4 4 3 3 4 4 3 3 3 3 3 4 5 5 5 4
6 5 4 2 2 2 1 1 3 3 3 4 5 6 6 5 5 6 5 4 5 5 5 4 3 4 4 5 5 5 6 3 1 3 3 3 3 1 1 1 2 3 3 3 2 2 2 1 2 2 2 2 2 2 2 1 1 1 1 1 1 1 1 1 0 0 1 1 2 2 3 3 3 4 4 5 5 4 4 4 5 6 6 6 5
7 6 4 3 2 2 1 1 1 1 3 4 4 5 5 4 5 5 5 5 5 5 5 4 3 4 4 5 5 5 4 3 2 4 3 2 3 1 1 2 3 2 2 2 2 2 3 2 3 4 4 4 3 2 2 3 3 3 3 3 3 2 2 2 1 2 2 2 2 3 3 3 4 4 5 5 5 5 6 6 6 5 5 5 6
8 7 5 4 3 2 1 1 1 1 2 3 4 5 4 4 4 3 4 4 4 4 4 3 3 3 4 4 5 4 2 2 3 5 3 2 2 1 2 3 3 2 2 3 2 2 3 4 4 4 4 4 4 3 3 3 4 4 5 5 5 5 5 5 4 5 5 5 5 5 6 5 6 6 6 6 6 6 7 7 7 6 5 5 6
8 7 6 4 3 2 1 0 1 1 2 3 4 4 3 2 2 2 3 3 3 4 4 3 3 3 3 3 4 4 3 2 2 5 6 4 2 1 1 4 4 3 4 4 3 2 4 5 6 5 5 5 5 4 4 4 4 5 5 6 6 7 7 7 6 7 7 8 8 8 8 8 8 8 9 9 9 8 9 9 8 8 7 6 7
8 7 6 5 4 2 2 1 1 2 3 4 4 2 2 2 2 2 3 3 4 5 4 3 3 3 2 3 5 5 5 4 3 7 9 5 3 2 1 2 3 3 4 5 4 3 4 6 7 6 5 6 6 5 5 5 5 5 5 5 5 6 7 8 8 8 8 9 9 10 10 11 10 10 10 11 11 11 11 11 11 11 11 11 11
8 7 7 6 4 3 2 1 1 3 4 4 4 2 1 2 3 4 3 3 5 4 4 3 2 2 2 4 5 6 6 5 5 8 9 6 5 3 2 2 2 3 4 5 6 5 4 5 6 6 6 7 6 6 6 6 6 6 6 6 6 6 7 7 8 8 8 9 9 9 10 11 11 11 11 11 12 12 12 13 13 13 13 13 14
9 8 7 7 5 4 3 2 1 2 3 2 2 3 2 2 3 3 3 3 4 5 5 4 2 2 1 3 5 5 4 5 7 5 6 7 5 3 3 3 3 4 5 5 6 7 6 5 6 6 6 6 6 7 7 7 7 7 7 6 7 7 8 7 7 8 8 9 10 10 10 11 11 11 11 11 12 12 12 13 14 14 15 15 15
9 8 7 7 6 5 4 3 2 2 3 1 1 2 3 2 1 2 2 3 5 6 6 5 3 2 1 1 3 4 2 4 6 4 5 7 5 3 2 4 5 6 6 6 6 8 8 7 6 6 6 6 6 7 8 8 8 8 7 7 7 8 8 8 9 9 9 10 10 11 11 11 12 11 11 11 11 11 12 12 13 14 15 16 16
10 9 8 8 7 6 5 4 2 2 3 3 4 4 3 2 1 1 2 3 6 7 7 6 4 2 1 1 1 1 1 3 4 4 4 6 6 3 1 3 5 5 6 7 9 7 7 7 7 7 7 7 7 7 8 8 8 9 8 8 8 8 9 10 10 10 10 10 11 12 12 12 12 12 12 12 11 12 12 12 13 13 14 15 16
10 10 9 8 8 6 5 4 3 4 4 4 5 5 4 2 1 1 2 5 6 8 8 6 4 3 3 2 2 2 2 3 4 5 3 4 5 2 1 1 5 5 5 8 10 10 8 7 7 8 7 8 8 8 8 9 9 9 8 8 8 9 10 11 12 12 11 12 12 13 13 13 13 13 13 13 12 12 12 13 13 13 14 14 15
12 11 10 9 8 7 6 5 4 5 5 5 6 5 4 2 1 1 3 5 6 8 9 7 5 3 3 3 3 3 3 3 6 7 3 4 5 3 1 1 3 7 7 5 4 8 8 7 9 11 11 10 8 8 9 10 11 11 10 11 11 11 12 12 13 14 14 14 14 14 14 14 15 15 14 14 14 14 13 14 14 15 15 15 16
13 12 11 10 10 8 7 6 5 7 5 5 6 5 4 2 1 1 3 5 5 7 8 7 6 4 2 1 1 4 3 3 7 8 4 4 4 3 1 2 2 5 7 4 2 3 4 3 6 8 10 10 10 11 11 12 13 13 13 14 14 13 14 14 15 15 15 15 15 15 15 15 15 15 15 15 15 15 15 15 16 16 16 17 17
15 14 13 12 10 9 8 6 6 7 5 5 5 5 4 3 1 1 3 4 4 5 6 6 6 4 3 1 3 3 2 2 5 6 4 3 3 2 1 2 2 4 5 4 3 1 0 0 2 3 4 5 8 10 11 13 13 14 14 14 14 14 14 14 14 14 14 14 14 14 14 14 14 14 14 14 14 15 15 15 16 16 17 17 17
16 15 14 13 12 10 9 7 7 7 5 6 7 6 5 4 2 1 2 3 3 4 5 5 5 6 5 3 4 3 2 3 2 2 3 2 3 3 2 1 1 3 2 2 3 1 1 1 2 2 2 4 5 6 8 10 11 12 13 13 13 13 13 13 12 12 12 12 12 12 12 12 12 13 13 13 13 13 14 14 15 15 16 16 16
17 17 15 14 13 12 10 9 8 7 7 8 9 7 6 5 3 1 1 3 2 2 3 3 5 7 7 6 5 3 4 6 4 3 2 1 2 2 3 2 1 1 1 1 2 2 2 1 2 2 2 3 4 5 6 8 9 10 12 12 12 13 13 13 12 12 12 11 11 11 11 10 10 11 11 11 11 12 12 12 13 13 13 14 14
17 17 17 16 15 13 12 10 9 9 9 9 9 8 7 6 4 1 1 2 1 1 1 3 5 7 8 9 8 6 4 4 4 4 3 1 1 1 2 3 2 1 2 2 1 1 2 0 1 2 2 3 3 5 6 7 8 9 10 10 10 11 11 12 12 11 11 10 10 9 9 9 9 9 9 9 10 10 10 10 11 11 11 12 12
18 18 18 17 16 14 13 12 11 10 11 10 10 10 9 7 5 3 2 2 2 2 2 3 4 7 9 9 8 8 6 5 4 3 3 2 1 1 2 3 4 3 3 2 2 2 1 1 2 2 2 3 4 5 6 7 7 8 9 9 9 9 9 9 9 9 9 9 9 8 8 7 7 7 7 8 8 8 9 9 9 9 10 10 10
17 18 19 18 17 16 14 13 12 11 12 12 12 12 11 9 7 6 4 3 3 3 3 3 4 6 8 8 7 8 7 7 6 4 4 3 2 2 0 4 4 4 5 3 3 4 4 3 4 4 3 3 4 5 6 7 7 7 8 9 9 8 7 7 7 7 7 7 7 7 7 6 6 7 7 8 8 9 9 10 10 10 11 11 11
16 17 18 19 18 17 16 15 14 13 13 14 14 14 13 11 10 8 6 5 5 4 3 3 3 4 6 6 6 7 7 7 6 5 5 4 2 2 1 3 2 4 5 5 6 6 6 6 6 7 5 5 6 6 7 7 7 8 7 7 7 6 6 5 4 5 5 5 5 5 5 6 6 7 8 9 9 10 11 12 13 14 14 15 15
15 16 17 18 19 19 18 17 15 14 14 15 16 16 15 13 11 10 8 7 6 5 3 3 2 2 4 5 5 5 6 6 5 5 5 4 3 4 4 4 4 5 5 5 7 7 7 6 6 7 7 6 7 7 7 8 8 8 8 7 7 6 6 5 5 5 5 5 6 6 7 8 8 9 10 11 11 13 14 16 17 18 19 20 20
12 13 15 17 19 19 19 18 16 15 15 16 17 17 17 15 13 11 10 9 8 6 5 4 2 1 2 3 4 4 4 5 5 6 5 4 3 2 1 3 5 6 6 6 8 8 7 7 5 6 7 7 8 8 8 8 8 8 9 9 9 8 8 7 7 7 7 8 8 9 10 11 11 12 12 13 14 16 18 19 21 22 23 24 24
9 10 13 16 18 19 19 19 18 17 16 17 18 19 18 17 15 13 12 11 10 8 6 5 3 2 0 1 2 2 3 4 5 5 6 5 4 3 2 2 3 5 6 7 8 7 7 8 7 6 7 8 9 9 9 9 8 9 9 10 10 10 9 9 9 9 9 10 10 11 12 12 13 14 15 16 18 19 21 22 23 23 23 24 24
9 10 12 15 18 19 20 20 20 19 18 18 19 20 20 19 18 16 14 13 12 10 8 7 5 3 2 1 1 1 1 2 3 4 5 5 5 4 4 4 3 5 6 6 7 7 8 9 8 8 8 9 10 11 11 11 11 10 10 11 11 10 10 10 10 11 11 12 12 12 13 14 15 16 18 19 21 22 23 23 22 21 21 21 22
11 11 12 14 16 18 20 22 21 21 20 19 20 22 22 22 21 19 16 15 14 12 10 9 7 5 4 4 3 3 2 2 3 4 5 5 5 5 5 5 5 6 7 8 8 9 8 8 8 9 9 10 11 12 13 13 12 12 12 12 12 11 11 11 11 11 11 12 13 13 14 15 16 18 20 21 22 23 22 22 21 20 20 21 21
14 14 14 14 15 17 20 22 23 22 21 21 21 23 24 24 23 22 19 17 16 15 13 10 9 8 7 6 5 4 4 4 4 5 6 6 7 6 6 6 6 7 8 9 9 8 7 7 8 11 11 11 12 13 14 14 13 13 14 14 13 12 13 13 12 12 13 13 14 14 15 16 17 19 20 21 22 22 22 21 20 20 20 21 21
18 16 16 15 15 17 18 21 23 23 23 22 22 24 25 26 26 25 23 20 19 17 16 13 11 10 9 8 7 5 5 6 6 7 7 7 8 9 8 8 8 8 8 9 9 7 7 7 9 12 12 12 13 13 14 15 15 15 15 15 15 14 14 14 13 14 14 14 15 16 17 17 18 20 21 22 22 22 22 21 20 20 21 21 22
20 19 18 17 16 17 18 19 22 24 24 24 24 25 26 28 28 27 26 24 21 20 19 17 14 13 12 11 9 7 7 7 9 10 9 9 10 11 11 10 9 9 9 10 10 8 9 10 10 13 14 13 14 14 14 15 16 16 15 15 15 15 15 15 15 16 16 16 17 17 18 19 20 22 22 22 23 23 23 23 22 22 22 23 23
22 21 21 20 19 19 19 19 20 22 24 25 25 25 27 29 29 29 29 26 24 22 21 20 18 16 15 14 12 10 9 9 10 12 12 11 11 12 13 12 11 11 10 10 11 11 11 11 12 14 14 13 14 15 15 15 15 16 16 15 15 15 15 16 17 17 16 17 18 20 20 21 22 22 23 23 24 24 24 25 25 25 25 26 26
24 23 23 22 22 21 21 21 21 22 23 25 26 26 27 29 30 31 31 29 26 24 23 22 20 19 18 17 16 14 12 11 12 14 14 13 13 14 14 14 13 13 12 12 12 13 12 12 13 15 15 14 15 16 17 17 15 16 16 16 17 17 16 17 17 16 16 18 21 22 22 23 23 24 24 25 26 26 27 28 28 29 29 29 30
26 26 25 25 24 23 23 23 23 23 23 24 26 27 27 29 31 32 32 32 29 27 25 23 22 22 21 20 19 17 16 14 14 15 16 15 15 15 15 16 15 15 14 14 14 14 14 14 14 15 16 16 16 17 18 18 16 16 17 18 18 18 17 18 18 19 19 20 22 24 24 25 26 26 27 28 28 29 30 31 32 33 34 34 34
29 29 28 28 27 26 25 25 25 25 24 23 25 26 27 28 31 32 33 34 32 30 28 26 24 24 23 23 22 21 20 18 16 17 17 17 17 17 17 17 17 17 16 16 16 16 16 16 16 16 17 17 17 18 19 19 18 16 17 18 18 17 18 18 19 21 21 21 23 24 25 26 27 27 28 28 30 31 32 33 35 36 37 37 37
31 31 31 30 29 28 28 27 27 26 26 25 24 25 26 28 30 33 34 35 35 33 31 29 27 26 25 25 25 24 23 22 20 19 19 18 18 18 18 18 18 19 18 17 17 17 17 18 18 18 19 18 18 18 19 19 19 18 18 18 17 17 18 19 20 21 21 22 23 25 26 26 26 26 27 28 30 32 33 35 36 37 38 38 38
32 32 32 32 31 31 30 29 28 27 27 26 25 25 25 27 29 32 35 36 36 35 34 32 30 28 27 27 27 27 27 25 23 21 21 20 20 20 20 20 19 20 20 19 19 19 19 20 20 20 21 20 19 19 18 19 20 20 20 18 17 18 19 20 20 22 22 23 24 24 25 26 25 25 26 28 30 32 34 35 36 37 37 37 36
32 33 32 32 32 32 30 30 30 29 28 28 27 26 26 26 28 31 34 36 37 37 36 34 33 31 29 29 29 30 30 28 26 24 22 22 22 22 22 22 21 21 22 22 21 20 20 21 22 23 23 22 21 20 18 18 20 21 20 19 18 18 19 20 20 21 22 24 25 26 26 26 26 27 28 29 31 33 34 34 35 35 34 33 32
32 33 33 32 31 32 31 30 30 30 29 29 29 28 28 27 27 29 32 36 38 38 37 36 36 34 32 31 31 31 31 31 28 26 25 24 24 24 23 24 23 23 23 23 23 22 22 22 23 25 25 24 23 21 20 19 19 20 21 21 20 20 20 21 20 20 21 24 26 28 28 27 28 29 30 30 32 33 33 33 33 32 31 30 29
30 32 34 33 32 32 32 31 31 31 31 31 31 30 30 29 28 28 30 34 38 39 38 38 37 36 35 33 33 32 32 32 31 29 27 27 26 26 25 25 25 25 24 24 24 24 23 23 24 25 27 27 25 23 21 20 19 20 21 21 21 22 22 22 22 21 22 24 25 26 27 27 28 30 31 32 32 31 31 30 29 28 28 27 27
27 29 32 33 33 32 32 32 32 32 33 33 33 32 31 31 30 29 29 32 37 39 39 39 38 38 37 36 35 34 33 33 32 31 30 30 29 28 28 27 27 27 26 26 26 25 25 24 24 25 27 28 27 25 23 21 21 21 21 22 22 23 24 24 24 23 23 24 24 24 24 26 29 31 32 32 31 29 28 28 27 27 27 27 26
26 27 29 32 32 31 31 32 31 32 33 33 33 33 33 32 32 31 30 31 35 39 40 40 39 39 39 39 38 36 35 35 34 32 32 32 31 30 30 30 29 29 28 28 27 27 26 26 26 26 27 28 28 27 25 23 22 22 21 21 22 23 24 25 26 26 24 24 24 24 24 27 30 31 31 30 27 26 26 26 25 26 27 27 27
30 28 28 30 31 29 29 29 30 30 31 31 31 32 32 33 33 33 32 32 33 37 41 41 41 40 41 41 40 39 38 37 36 34 33 34 34 32 32 31 31 31 31 29 29 28 27 26 26 27 28 29 29 29 27 25 24 23 22 22 23 24 25 26 27 27 26 25 25 25 26 28 30 30 28 26 24 23 23 23 24 25 26 27 28
34 32 30 30 31 30 28 28 28 29 29 30 30 30 30 32 33 34 34 33 33 36 40 42 41 41 42 43 43 42 41 39 38 36 34 35 36 35 34 33 33 33 33 31 30 30 29 28 27 28 29 29 29 30 28 27 26 26 25 25 26 25 25 26 27 27 27 26 26 26 27 28 29 28 26 24 22 22 23 22 23 25 26 27 28
37 35 33 31 31 31 30 29 29 29 29 30 30 29 29 30 32 34 35 35 34 35 38 41 42 41 42 43 44 44 44 42 40 37 36 36 37 36 35 35 34 34 34 33 32 31 30 29 28 28 29 30 31 30 29 28 29 28 27 26 26 27 27 27 27 27 27 28 27 27 27 27 28 27 24 23 22 23 24 24 24 25 26 27 27
38 37 35 33 32 32 32 31 31 30 31 31 31 31 30 29 31 34 36 37 36 36 38 40 42 42 42 43 45 45 45 44 42 40 38 37 37 38 37 36 36 35 35 35 34 33 32 31 29 28 29 30 31 31 29 29 30 29 28 27 27 28 28 27 27 26 27 29 29 27 26 26 26 24 22 22 22 22 25 26 26 26 26 27 27
37 37 36 35 34 33 33 33 33 32 32 33 33 33 32 31 31 32 35 37 37 37 38 40 41 43 43 43 45 45 45 45 44 42 40 39 38 39 39 38 37 37 36 35 35 35 34 32 31 30 29 30 31 31 30 29 29 28 28 28 28 29 29 29 29 27 28 29 29 26 24 23 22 21 20 20 20 22 25 27 28 27 27 27 26
37 37 37 36 35 34 34 34 34 34 33 34 34 34 33 32 32 33 35 37 38 39 39 40 41 43 43 44 45 45 46 45 44 43 42 41 41 41 41 40 40 39 38 36 36 36 35 33 32 31 30 30 31 31 31 30 30 30 30 29 29 30 31 31 30 29 29 31 30 26 22 21 20 18 18 18 19 21 24 27 28 27 26 25 24
37 37 37 36 36 36 35 35 35 34 34 34 33 34 34 34 34 35 36 37 39 40 40 41 42 43 44 45 46 47 47 46 45 43 43 43 44 43 42 42 42 42 40 38 38 37 36 35 33 31 31 31 31 31 31 31 31 31 31 30 29 30 32 32 30 29 28 30 32 28 22 20 19 17 16 16 17 20 23 26 28 27 26 25 23
37 37 37 37 37 37 36 36 36 36 35 35 34 34 35 35 35 37 38 39 40 40 41 43 44 45 45 46 46 47 48 48 46 45 44 45 46 45 43 44 44 44 42 41 40 39 38 36 33 31 31 31 31 32 32 32 32 31 30 30 30 30 32 31 29 29 27 28 31 29 23 22 21 18 16 16 17 19 22 25 27 27 27 25 23
37 38 38 38 38 38 38 37 37 37 37 37 36 35 35 35 36 37 39 41 41 41 42 44 46 47 48 48 47 47 48 49 49 47 47 47 48 47 47 46 46 45 44 44 44 42 39 37 34 33 32 31 32 33 33 33 33 31 30 29 29 31 31 28 27 29 29 28 29 26 23 22 21 18 17 17 17 19 21 24 26 26 26 24 22
Wind_Direction
161 156 147 134 128 126 118 90 67 46 40 46 31 34 50 41 31 35 36 36 36 28 25 24 21 24 10 359 358 352 348 347 341 305 270 8 33 341 270 236 239 236 239 251 231 204 187 176 154 146 142 129 121 114 76 73 88 96 111 124 146 167 184 184 180 184 207 232 257 287 278 278 285 303 339 342 351 11 35 44 19 359 354 355 357
172 166 154 142 143 118 86 81 78 55 42 45 34 35 45 40 32 28 33 33 26 24 12 10 15 8 357 347 346 346 343 1 350 315 306 315 46 356 292 230 242 254 264 268 246 215 192 175 167 165 148 124 101 115 81 54 73 82 96 113 143 172 183 195 199 203 215 226 251 275 271 271 276 275 284 307 323 347 16 43 25 342 334 336 343
178 170 164 145 136 121 95 85 73 58 40 39 39 37 39 35 34 29 28 20 17 19 359 3 9 347 349 334 335 337 347 41 359 287 268 250 188 35 324 232 247 264 291 301 272 238 211 170 190 194 145 132 136 130 85 43 61 69 75 89 99 156 194 198 202 210 223 231 246 267 276 280 286 291 301 311 312 316 325 315 300 299 305 316 327
184 178 176 158 146 128 96 51 40 42 37 38 39 35 34 30 27 27 29 14 8 13 355 353 348 335 335 322 332 329 329 42 346 256 165 193 200 91 325 295 267 272 293 302 299 263 238 167 229 260 260 196 215 224 170 211 17 38 43 57 70 60 65 172 189 205 222 235 244 258 266 269 281 296 300 307 310 300 297 296 295 301 307 311 316
187 185 185 191 170 135 109 70 48 37 42 43 41 37 36 29 17 15 17 14 11 14 4 355 335 317 321 321 321 316 307 329 311 231 171 174 175 153 307 311 299 293 302 296 283 274 264 243 268 283 285 273 251 238 248 256 284 308 326 349 0 52 70 80 83 202 229 245 257 265 270 280 293 295 290 298 303 293 291 291 294 302 309 314 315
191 192 189 209 196 158 172 116 88 43 42 36 39 44 39 31 25 14 3 8 17 19 10 2 338 305 309 319 310 309 298 281 230 194 174 130 133 127 284 292 314 302 311 306 272 271 277 261 261 282 290 285 280 273 273 276 286 288 290 295 295 304 298 295 301 288 282 283 290 295 297 301 296 287 284 291 293 288 290 291 292 297 305 312 314
195 200 193 206 218 187 174 117 101 33 26 18 38 48 42 32 29 15 359 8 18 23 27 15 351 313 296 310 307 303 292 261 199 182 160 113 126 112 272 287 321 295 292 317 304 278 271 260 251 265 272 269 279 290 286 290 294 291 296 301 298 294 288 290 291 282 284 292 299 302 300 296 286 282 281 278 281 286 290 289 288 290 295 304 309
197 200 195 202 219 215 195 53 350 6 4 13 45 46 38 32 14 12 10 14 17 23 27 14 358 337 301 306 304 287 252 215 188 174 155 139 149 114 276 293 311 305 299 306 307 294 272 263 254 255 259 257 265 275 286 299 298 290 295 301 301 296 291 291 290 284 286 292 297 300 298 295 292 292 292 287 284 284 285 286 286 285 286 288 293
200 198 195 204 218 222 218 233 312 327 343 5 34 52 35 352 345 19 22 11 17 25 15 2 359 344 331 301 272 258 238 220 181 158 152 151 161 153 183 282 302 299 295 293 291 291 280 266 255 252 258 265 271 276 285 297 295 288 290 293 294 292 290 289 288 285 288 291 292 295 295 295 294 292 293 291 288 285 284 286 286 285 283 281 283
201 199 195 205 218 220 226 224 285 313 340 356 359 12 0 332 345 9 19 8 13 24 9 356 354 337 341 309 281 266 247 214 172 153 151 159 171 173 192 214 226 222 247 279 289 286 276 267 261 262 264 268 274 277 281 285 284 281 280 281 283 286 286 283 283 283 289 292 290 293 295 295 295 291 287 286 286 287 286 287 287 286 283 280 279
203 204 199 205 212 212 222 225 241 298 327 347 344 333 314 318 345 352 1 6 13 20 3 352 338 310 305 319 315 302 264 180 164 159 146 151 162 173 225 241 235 218 218 241 272 276 264 258 266 268 267 268 269 273 277 277 276 274 273 272 270 277 283 282 281 282 286 290 290 292 294 295 296 293 290 288 288 288 287 286 287 286 284 282 281
209 209 206 206 207 206 211 218 230 281 296 256 201 257 275 280 311 334 355 8 16 14 359 351 342 324 305 327 331 318 280 168 163 156 140 141 149 176 235 269 263 245 233 213 229 260 267 267 277 280 280 284 283 282 281 279 277 274 272 270 266 270 278 278 277 278 280 285 288 288 287 288 290 290 289 290 289 289 288 287 287 287 285 284 284
217 214 213 210 208 206 208 217 229 257 258 220 197 213 238 254 276 330 11 21 19 12 1 352 339 335 347 347 343 4 91 150 140 132 150 143 142 175 260 314 285 257 253 239 222 232 260 271 274 280 284 286 290 292 289 282 276 271 268 269 269 272 274 273 274 276 278 282 284 283 282 283 286 288 290 289 288 287 286 286 287 288 287 285 285
222 221 220 216 213 211 214 221 225 241 237 212 206 206 215 238 269 345 20 28 24 16 8 357 344 358 25 55 81 78 96 123 118 123 171 156 141 167 120 306 300 310 285 258 231 218 230 246 245 248 257 265 276 287 290 285 277 270 266 267 269 270 271 272 276 280 281 282 282 282 283 284 286 289 290 289 288 288 287 287 287 286 287 286 286
226 225 224 222 221 218 223 227 230 236 217 202 213 207 206 229 258 23 33 25 23 19 12 6 2 16 37 52 86 86 81 113 116 114 157 189 167 183 142 183 301 327 316 290 222 206 215 235 239 237 241 248 259 272 278 280 279 276 272 272 270 269 271 273 277 280 282 284 284 285 286 286 287 288 289 289 288 288 288 288 287 286 287 288 287
228 228 227 225 224 223 227 226 241 247 216 201 215 208 212 224 241 12 39 24 16 15 12 13 7 16 38 358 95 90 71 116 114 108 157 208 165 166 54 52 13 351 344 6 82 175 204 242 256 247 244 244 250 258 265 270 274 276 276 276 274 273 276 278 280 282 283 285 286 287 287 287 288 289 290 290 290 289 290 289 289 289 290 290 289
229 229 228 227 226 227 230 223 238 249 221 213 225 215 229 229 227 343 37 23 10 6 9 17 10 24 49 33 97 81 37 138 111 109 180 213 134 159 166 71 38 24 15 32 70 114 171 309 301 288 271 262 260 261 264 271 276 280 281 280 278 276 277 278 280 282 283 285 287 288 290 292 294 295 295 295 295 295 294 294 293 293 292 292 291
229 229 228 229 228 228 229 222 231 241 217 217 226 220 230 232 229 305 31 17 2 358 8 20 24 42 51 57 96 101 125 146 136 141 189 190 155 187 191 171 36 57 40 35 85 78 9 332 319 332 327 306 293 283 275 280 287 290 291 288 284 281 280 282 283 286 290 293 296 299 301 302 302 302 302 301 301 299 298 297 295 295 294 294 294
228 228 227 227 229 229 228 222 225 234 224 221 225 223 230 232 226 221 22 2 349 346 14 38 43 52 56 61 81 102 132 143 166 180 178 167 176 210 210 226 326 60 5 8 111 83 43 337 311 319 313 301 295 295 290 293 302 305 305 301 297 295 294 295 296 298 301 303 304 305 304 305 303 303 303 302 301 299 297 296 294 293 293 294 294
226 225 226 226 228 228 226 222 222 226 227 228 227 225 229 230 223 216 306 322 303 275 63 75 65 60 60 61 69 75 98 137 161 176 180 190 303 294 231 258 326 20 359 0 172 54 45 177 304 311 292 293 292 298 301 306 316 320 320 318 315 313 309 306 306 306 307 306 307 307 307 307 307 307 306 305 303 301 300 299 299 299 299 298 298
227 222 223 224 226 227 225 221 221 224 225 228 230 230 231 229 224 229 249 268 239 199 132 107 89 72 65 60 62 70 77 91 101 117 136 153 232 201 206 286 326 335 337 329 247 300 348 235 298 300 283 293 297 303 310 316 324 327 327 327 327 326 321 316 314 311 309 307 307 308 309 313 314 316 317 317 317 316 317 318 318 318 317 316 314
228 224 222 222 224 226 226 223 222 224 225 227 230 232 234 231 225 231 244 237 217 195 160 127 100 76 69 65 61 67 71 80 90 97 102 118 185 157 282 303 308 298 298 307 301 306 310 309 310 302 294 294 297 308 313 315 321 323 324 327 328 327 324 319 313 308 304 302 302 304 310 317 321 327 329 331 331 329 330 330 330 329 328 327 326
225 224 223 222 222 224 225 225 223 223 225 226 230 233 235 234 227 230 243 230 210 197 174 144 104 74 67 66 62 61 64 76 87 92 94 100 132 135 294 295 283 289 297 315 323 312 307 315 314 310 311 301 301 312 315 314 315 314 316 322 324 320 316 315 310 304 296 292 294 300 310 317 321 324 325 326 326 325 325 324 324 323 321 320 319
221 222 223 222 222 223 224 226 225 226 227 226 230 232 232 235 232 231 241 231 213 205 185 165 129 81 64 59 55 54 59 69 73 72 79 83 96 135 191 219 233 282 309 317 319 313 303 303 303 310 317 312 311 315 314 315 313 310 310 312 312 304 301 306 309 308 304 302 303 307 313 316 317 318 318 318 318 318 318 318 317 316 315 314 313
217 216 219 224 224 224 224 226 228 228 228 227 229 230 230 233 234 233 239 234 219 211 200 190 176 117 54 47 44 43 54 64 64 57 60 60 56 87 177 217 240 279 310 315 318 317 303 300 296 307 319 316 315 316 310 309 308 308 308 307 308 304 301 306 313 316 314 312 311 312 314 314 314 313 311 311 312 313 314 313 313 311 311 310 309
218 211 213 222 225 224 223 226 229 230 230 228 228 228 229 232 233 232 237 236 226 218 211 205 193 180 334 38 45 32 40 56 60 53 47 47 42 29 3 337 271 296 315 309 313 315 304 305 303 305 317 316 314 317 312 307 306 305 304 303 303 304 307 313 319 320 319 318 317 314 313 311 309 308 308 309 310 311 311 310 310 309 309 309 309
226 221 218 222 224 223 223 225 229 232 232 231 229 229 229 230 232 232 236 238 234 228 221 216 206 202 223 224 212 282 335 27 39 39 36 31 27 19 6 356 318 312 324 321 316 311 301 304 305 309 320 320 319 319 316 311 307 304 302 301 301 304 309 315 319 320 320 318 316 314 311 308 307 307 308 310 310 310 310 309 310 311 312 314 314
232 230 229 229 229 226 225 227 231 234 235 235 233 232 230 231 232 232 235 238 238 236 233 228 222 217 224 225 225 247 273 322 355 2 9 7 6 5 0 356 336 322 333 336 328 324 320 318 316 320 328 326 322 320 316 313 309 305 305 304 305 310 314 316 318 318 315 313 311 309 308 307 308 310 310 311 311 311 312 312 312 313 317 320 320
233 233 234 236 236 233 231 232 235 238 239 240 238 236 233 232 233 232 232 235 239 241 242 240 237 233 232 232 233 251 279 302 323 333 340 342 344 346 344 342 337 333 337 336 336 336 332 324 315 320 330 328 320 318 314 312 310 307 306 306 308 313 315 314 316 315 312 309 307 306 307 309 311 312 313 314 316 316 317 317 315 314 316 319 320
236 236 237 238 239 241 239 237 239 241 243 243 242 239 236 234 235 234 232 234 238 242 246 248 248 246 243 242 244 255 280 297 307 315 322 326 329 332 332 329 327 327 329 332 339 334 318 313 309 315 325 323 316 315 312 311 310 306 305 306 308 312 312 312 314 314 311 307 305 306 308 310 312 313 317 320 322 321 321 320 318 316 316 316 316
238 239 240 242 243 245 246 244 243 243 243 245 244 242 239 235 235 236 236 236 237 240 246 250 253 255 253 253 254 258 271 286 296 302 307 316 322 323 323 322 319 319 318 320 328 327 319 318 312 311 319 319 315 315 313 309 306 302 302 304 306 309 310 312 314 311 308 306 308 309 308 309 312 316 320 323 324 324 323 323 321 318 316 314 313
239 241 243 246 247 247 249 250 248 245 243 244 245 244 242 239 236 236 239 240 238 238 244 250 255 258 259 258 258 259 266 277 287 293 298 305 315 318 318 317 316 315 315 311 314 319 321 320 314 312 316 315 313 316 316 312 305 300 302 303 305 308 309 312 313 309 307 308 309 310 310 312 316 319 322 324 324 323 323 322 320 318 315 314 313
241 244 246 248 250 251 250 251 252 250 245 243 244 245 244 242 239 237 239 242 241 240 242 248 253 258 261 262 262 262 265 271 278 284 290 296 305 311 314 314 314 314 315 311 308 311 314 317 317 316 317 314 312 316 319 317 308 301 302 303 305 307 308 310 310 306 306 309 310 311 312 316 319 322 323 324 323 322 321 320 320 318 317 316 316
243 246 248 250 252 254 253 252 253 254 251 246 244 244 243 243 241 239 240 242 243 242 243 246 251 256 260 263 264 263 264 267 272 277 282 288 295 303 309 311 313 314 314 311 307 307 309 315 317 317 319 318 314 317 322 321 314 305 303 305 305 305 307 309 308 304 304 307 309 311 314 317 319 321 322 322 321 320 320 319 319 318 317 317 317
244 246 249 251 252 254 255 254 253 256 257 253 248 245 243 242 242 240 240 242 243 243 244 246 250 254 258 262 264 264 263 265 269 273 278 283 289 296 302 307 310 313 313 310 307 306 306 311 315 316 320 321 316 316 321 323 320 313 307 306 305 305 306 308 307 305 306 309 310 311 313 315 316 318 318 317 316 316 316 317 316 315 315 315 316
245 247 248 250 252 252 254 256 256 258 260 260 257 252 248 244 242 241 241 241 243 243 243 244 247 252 256 260 263 265 263 263 266 270 275 280 285 289 295 302 306 308 310 308 305 304 303 305 308 310 315 320 318 316 318 319 319 317 312 307 305 304 306 308 308 306 307 310 311 311 312 313 315 316 315 314 313 313 313 314 314 313 313 313 314
245 248 249 250 252 253 254 257 260 261 262 263 262 259 255 250 245 243 241 241 242 243 243 243 246 250 255 258 262 264 265 264 265 269 273 277 281 284 289 296 301 304 307 308 305 302 301 302 303 304 306 312 316 316 314 313 313 316 316 311 306 305 307 307 307 305 307 309 310 310 311 312 313 313 311 311 311 310 310 311 312 311 312 314 315
246 249 251 251 253 255 256 258 261 263 263 263 263 262 260 256 250 246 243 241 242 243 242 243 245 248 252 256 260 263 266 266 266 268 272 275 278 281 284 290 295 299 303 307 305 301 300 299 300 301 300 302 309 313 311 308 309 312 313 310 306 304 306 307 307 307 308 311 311 310 310 310 310 310 310 311 311 310 310 311 311 311 314 316 317
245 250 253 253 254 256 258 258 260 262 262 262 262 262 261 259 255 250 246 242 242 243 243 243 244 247 251 254 258 261 265 267 267 267 270 273 276 278 281 284 290 294 298 301 303 301 299 298 297 298 297 297 300 305 307 306 305 308 309 307 305 303 304 306 308 309 310 312 312 311 311 312 313 312 313 312 311 310 311 312 314 315 317 318 317
245 249 253 255 256 256 258 259 259 261 261 260 260 260 260 260 258 254 249 245 243 243 244 243 244 246 249 252 256 259 262 265 266 267 269 272 274 276 278 280 284 289 292 296 299 300 298 297 296 295 295 295 295 299 302 304 303 303 304 304 303 302 302 304 307 308 308 309 310 309 310 313 313 312 312 312 311 312 314 315 316 317 317 316 316
247 248 251 255 257 256 257 259 259 259 259 258 257 257 258 259 259 258 254 248 245 244 245 245 245 246 249 251 254 257 260 263 264 265 268 271 272 274 276 278 281 285 288 291 295 296 295 295 294 294 293 293 292 293 297 300 301 299 299 301 302 301 301 303 306 306 305 306 306 307 308 309 310 311 311 311 312 314 316 317 318 318 316 316 316
252 250 250 253 256 256 256 257 257 257 257 257 256 256 256 258 259 259 258 253 247 246 246 246 246 246 248 251 253 256 259 261 261 262 265 269 271 272 274 277 279 282 285 288 291 293 293 292 292 292 291 291 290 290 291 295 298 297 297 300 301 300 300 302 305 307 306 304 305 305 306 307 307 309 309 309 311 314 317 318 319 318 317 317 317
254 253 252 252 255 257 256 256 256 256 256 257 258 256 255 255 257 258 258 256 251 248 248 248 248 247 248 250 252 254 258 261 261 260 262 267 271 271 272 275 278 280 283 286 288 290 290 290 291 291 290 290 289 288 288 290 292 294 296 299 300 299 298 299 304 307 304 303 303 304 305 306 306 307 307 308 311 314 316 318 318 316 316 317 317
252 253 253 253 255 258 259 258 257 256 258 260 261 261 257 254 255 256 257 257 255 251 249 250 250 248 248 249 250 253 256 260 261 260 260 264 269 271 272 274 277 279 281 284 287 289 289 289 289 289 290 290 289 287 287 287 287 289 293 298 299 299 298 298 302 304 301 301 301 301 304 306 307 307 309 312 315 318 320 321 319 317 317 316 315
249 252 253 252 254 257 260 261 261 260 260 262 263 264 261 256 254 254 256 257 256 254 252 251 251 251 249 249 250 252 255 259 261 260 260 262 266 269 270 272 275 278 281 284 286 288 288 287 287 287 289 290 289 288 287 284 284 286 290 294 297 299 298 298 301 303 301 299 299 300 305 309 308 309 312 315 320 323 323 321 319 317 316 315 314
248 252 254 254 253 255 258 261 263 264 263 263 264 265 264 261 256 254 255 256 256 255 254 252 252 252 251 250 250 252 254 257 260 260 259 260 263 266 267 269 272 277 280 283 286 287 287 286 286 286 287 288 288 287 285 282 281 283 286 290 295 298 298 296 297 299 297 296 297 301 307 308 307 309 312 315 320 323 322 320 319 317 317 316 315
251 254 256 257 257 256 257 259 262 265 265 265 266 266 266 265 262 257 255 256 257 256 256 254 253 253 252 251 251 252 253 256 260 259 258 259 261 263 265 266 269 273 277 281 284 286 286 286 285 284 284 285 286 286 284 282 280 280 283 288 293 296 295 293 295 296 294 292 294 299 305 306 305 308 311 314 320 323 321 319 318 317 317 316 315
252 255 257 259 260 260 260 260 263 266 268 268 268 268 267 266 265 262 259 257 257 257 257 257 255 254 254 253 253 253 253 256 259 259 257 257 259 261 263 264 266 269 273 278 281 283 284 284 283 281 281 283 285 286 285 283 281 279 280 284 289 292 293 292 294 295 294 293 295 301 307 305 303 307 310 314 319 320 317 316 316 316 317 316 314
253 257 259 259 260 262 263 264 264 266 268 268 269 269 268 265 263 263 262 260 259 258 258 258 257 256 256 255 254 254 255 256 258 259 257 256 258 260 261 262 264 266 270 275 278 279 281 282 281 279 278 280 283 285 285 284 281 278 277 280 285 289 290 291 292 292 293 295 299 304 309 308 305 307 309 312 317 317 315 315 316 318 318 317 317
253 255 257 258 259 261 263 265 266 266 265 265 266 267 267 265 262 261 261 261 261 260 259 257 257 258 258 257 255 255 256 257 258 259 258 256 258 260 261 261 262 264 268 272 275 276 278 279 279 278 276 276 278 281 282 281 279 276 274 276 281 285 288 290 291 291 293 295 297 303 309 307 304 306 309 312 317 316 315 316 318 320 320 318 318
250 251 253 255 256 258 260 263 266 267 266 266 266 267 266 266 264 261 260 259 260 260 259 258 257 258 258 258 257 256 256 258 259 260 259 258 258 260 262 261 262 264 266 269 272 274 276 277 276 275 273 272 273 276 278 278 277 273 271 273 277 282 285 287 288 290 292 291 292 299 304 301 299 303 308 314 318 317 316 317 318 319 318 316 318
Height
3223 3223 3224 3224 3224 3224 3224 3224 3223 3223 3223 3223 3223 3222 3222 3223 3222 3222 3222 3221 3221 3221 3221 3221 3221 3221 3221 3221 3220 3220 3220 3220 3220 3220 3219 3218 3218 3218 3218 3218 3218 3218 3219 3220 3220 3220 3220 3220 3220 3221 3221 3221 3221 3221 3221 3221 3221 3221 3222 3222 3222 3223 3224 3224 3225 3225 3226 3226 3226 3226 3226 3226 3226 3226 3226 3227 3227 3227 3227 3227 3227 3227 3227 3227 3227
3223 3224 3224 3224 3224 3224 3224 3224 3224 3224 3223 3223 3223 3223 3223 3223 3223 3223 3222 3222 3222 3222 3222 3222 3221 3221 3221 3221 3220 3220 3220 3220 3221 3221 3220 3219 3218 3217 3218 3218 3218 3219 3219 3220 3220 3221 3221 3221 3221 3221 3221 3221 3221 3222 3222 3222 3222 3222 3222 3222 3223 3223 3224 3225 3225 3226 3226 3226 3226 3226 3226 3226 3227 3227 3226 3226 3227 3227 3227 3227 3227 3227 3227 3227 3227
3223 3223 3224 3224 3225 3225 3224 3225 3224 3224 3224 3224 3223 3223 3223 3223 3223 3223 3222 3222 3222 3222 3222 3222 3222 3221 3221 3221 3220 3220 3220 3220 3222 3222 3221 3219 3218 3218 3218 3219 3219 3219 3219 3220 3221 3221 3221 3221 3221 3221 3221 3221 3222 3222 3222 3223 3223 3223 3223 3223 3223 3224 3224 3225 3225 3226 3226 3226 3226 3226 3226 3227 3227 3227 3227 3227 3227 3227 3227 3227 3227 3227 3226 3226 3226
3223 3224 3224 3224 3224 3225 3225 3224 3224 3224 3224 3224 3224 3223 3223 3223 3223 3222 3222 3222 3222 3222 3222 3222 3222 3221 3221 3221 3220 3220 3220 3221 3222 3222 3222 3220 3219 3219 3219 3219 3219 3219 3219 3220 3221 3221 3221 3222 3222 3222 3222 3222 3222 3222 3222 3223 3223 3223 3223 3224 3224 3224 3224 3225 3225 3226 3226 3226 3226 3226 3226 3226 3227 3227 3227 3227 3227 3227 3227 3227 3227 3227 3226 3226 3226
3223 3224 3224 3224 3224 3225 3225 3224 3224 3225 3225 3224 3224 3223 3223 3223 3223 3222 3222 3222 3222 3222 3222 3222 3222 3221 3221 3221 3221 3221 3220 3221 3222 3222 3221 3220 3219 3220 3220 3220 3220 3220 3220 3220 3221 3221 3222 3222 3222 3222 3222 3222 3222 3222 3222 3223 3223 3223 3224 3224 3224 3224 3225 3225 3225 3226 3226 3226 3226 3226 3226 3226 3226 3227 3227 3227 3227 3227 3226 3226 3226 3226 3226 3226 3226
3223 3224 3224 3224 3225 3225 3225 3225 3225 3225 3225 3225 3224 3223 3223 3223 3223 3223 3223 3223 3222 3222 3222 3222 3222 3222 3221 3221 3221 3221 3221 3222 3222 3221 3221 3220 3220 3220 3220 3220 3220 3220 3220 3220 3221 3221 3222 3222 3222 3222 3223 3223 3223 3222 3223 3223 3223 3224 3224 3224 3225 3225 3225 3225 3225 3226 3226 3226 3226 3226 3226 3226 3226 3226 3226 3226 3226 3226 3226 3226 3226 3226 3225 3225 3226
3223 3223 3224 3224 3225 3225 3225 3225 3225 3225 3225 3225 3224 3224 3224 3224 3223 3223 3223 3223 3223 3223 3223 3222 3222 3222 3221 3221 3221 3221 3221 3221 3221 3221 3221 3220 3220 3221 3221 3221 3220 3220 3220 3220 3221 3221 3222 3222 3222 3222 3223 3223 3223 3223 3223 3223 3223 3224 3224 3224 3225 3225 3225 3225 3225 3225 3226 3226 3226 3226 3226 3226 3226 3226 3226 3226 3226 3226 3225 3225 3225 3225 3225 3225 3225
3223 3223 3223 3224 3224 3225 3225 3225 3225 3225 3225 3225 3224 3224 3224 3224 3223 3223 3223 3223 3223 3223 3222 3222 3222 3221 3221 3221 3221 3221 3221 3221 3221 3221 3220 3221 3221 3221 3221 3221 3221 3221 3221 3221 3221 3221 3221 3222 3222 3222 3223 3223 3223 3223 3223 3223 3223 3223 3224 3224 3224 3225 3225 3225 3225 3225 3226 3226 3226 3226 3226 3226 3225 3225 3225 3225 3225 3225 3225 3225 3225 3225 3224 3224 3224
3223 3223 3223 3223 3224 3224 3225 3225 3225 3224 3224 3224 3224 3224 3224 3223 3223 3223 3223 3223 3223 3223 3222 3222 3222 3221 3221 3221 3220 3220 3220 3220 3221 3221 3220 3221 3221 3221 3222 3222 3222 3222 3221 3221 3221 3221 3221 3222 3222 3222 3222 3222 3223 3223 3223 3223 3223 3223 3223 3224 3224 3224 3224 3224 3224 3225 3225 3225 3225 3225 3225 3225 3225 3225 3225 3225 3225 3225 3225 3224 3224 3224 3224 3223 3223
3223 3223 3223 3223 3223 3224 3224 3224 3224 3223 3223 3223 3223 3223 3223 3223 3222 3222 3223 3223 3223 3223 3222 3222 3222 3221 3221 3221 3220 3219 3219 3219 3220 3220 3220 3221 3221 3222 3222 3222 3222 3223 3222 3222 3221 3221 3221 3222 3222 3222 3222 3222 3222 3222 3223 3223 3223 3223 3223 3223 3223 3223 3223 3223 3223 3223 3224 3224 3224 3224 3225 3224 3224 3224 3224 3224 3224 3224 3223 3223 3223 3223 3223 3223 3223
3222 3223 3223 3223 3223 3223 3224 3224 3224 3223 3223 3223 3223 3224 3224 3223 3222 3222 3223 3223 3223 3223 3223 3222 3222 3221 3221 3220 3220 3219 3219 3219 3219 3220 3220 3221 3221 3222 3222 3222 3222 3223 3223 3223 3222 3221 3221 3222 3222 3222 3222 3222 3222 3222 3222 3223 3223 3223 3223 3223 3223 3223 3222 3222 3223 3223 3223 3223 3223 3223 3223 3223 3223 3223 3223 3222 3222 3222 3222 3222 3222 3222 3222 3222 3222
3222 3223 3223 3223 3223 3224 3224 3224 3224 3224 3224 3224 3224 3224 3224 3224 3224 3224 3224 3224 3224 3223 3223 3222 3222 3221 3221 3220 3220 3219 3219 3219 3219 3220 3220 3220 3221 3222 3222 3222 3222 3222 3223 3223 3223 3222 3221 3222 3222 3221 3222 3222 3222 3222 3222 3222 3222 3223 3222 3222 3222 3222 3222 3222 3222 3222 3222 3222 3222 3222 3222 3223 3222 3222 3222 3221 3220 3220 3220 3220 3220 3220 3220 3220 3220
3222 3222 3223 3223 3223 3224 3224 3224 3224 3225 3224 3225 3225 3224 3224 3224 3224 3225 3225 3225 3224 3223 3223 3222 3222 3222 3221 3220 3220 3219 3219 3219 3219 3221 3221 3221 3221 3222 3222 3222 3221 3222 3222 3222 3223 3222 3222 3222 3221 3221 3221 3221 3221 3221 3221 3221 3221 3222 3221 3221 3222 3221 3221 3221 3221 3221 3221 3221 3221 3221 3221 3221 3221 3221 3221 3220 3219 3219 3219 3219 3219 3219 3219 3219 3219
3221 3222 3222 3223 3223 3224 3224 3224 3224 3225 3225 3225 3225 3224 3224 3225 3225 3225 3225 3225 3224 3224 3223 3223 3222 3222 3221 3221 3220 3220 3219 3219 3220 3222 3223 3222 3221 3221 3221 3222 3221 3221 3221 3221 3221 3222 3222 3221 3221 3221 3221 3220 3220 3220 3220 3220 3220 3220 3220 3220 3220 3220 3220 3220 3220 3220 3220 3220 3220 3220 3220 3220 3220 3220 3219 3219 3219 3218 3218 3218 3218 3218 3218 3218 3218
3221 3222 3222 3223 3223 3223 3224 3224 3224 3224 3224 3225 3224 3224 3224 3225 3225 3225 3225 3225 3225 3224 3223 3223 3222 3222 3221 3221 3221 3220 3220 3220 3220 3222 3223 3222 3221 3221 3221 3222 3222 3221 3221 3220 3219 3220 3221 3221 3221 3221 3221 3220 3220 3219 3219 3219 3219 3219 3219 3219 3219 3219 3219 3219 3219 3219 3219 3219 3219 3219 3219 3219 3219 3218 3218 3218 3218 3217 3217 3217 3217 3217 3217 3216 3216
3220 3221 3222 3222 3223 3223 3224 3224 3224 3224 3224 3224 3224 3224 3224 3225 3225 3225 3225 3225 3225 3224 3224 3223 3223 3222 3221 3221 3221 3221 3220 3220 3221 3222 3223 3222 3221 3221 3221 3221 3222 3221 3221 3220 3220 3220 3220 3220 3220 3220 3220 3220 3220 3219 3219 3219 3218 3218 3218 3218 3218 3218 3218 3218 3218 3218 3218 3218 3218 3218 3217 3217 3217 3217 3217 3216 3216 3216 3216 3216 3215 3215 3215 3215 3215
3220 3220 3221 3222 3222 3223 3223 3224 3224 3224 3224 3224 3224 3224 3224 3225 3225 3225 3225 3225 3225 3225 3224 3224 3223 3222 3222 3221 3221 3222 3221 3221 3222 3223 3223 3222 3222 3222 3222 3222 3221 3221 3221 3221 3220 3220 3220 3220 3219 3219 3219 3219 3219 3219 3218 3218 3218 3217 3217 3217 3217 3217 3217 3217 3217 3216 3216 3216 3216 3216 3216 3216 3216 3216 3215 3215 3215 3215 3215 3214 3214 3213 3213 3213 3213
3219 3220 3220 3221 3222 3222 3223 3223 3224 3224 3224 3224 3224 3224 3224 3225 3225 3225 3226 3226 3226 3225 3225 3225 3224 3223 3222 3222 3221 3222 3222 3222 3222 3223 3223 3222 3222 3222 3222 3222 3221 3221 3221 3221 3221 3220 3220 3220 3219 3219 3219 3219 3219 3218 3218 3217 3217 3217 3216 3216 3216 3216 3216 3216 3216 3216 3216 3216 3216 3216 3216 3215 3215 3215 3214 3214 3214 3213 3213 3213 3212 3212 3211 3211 3210
3218 3219 3220 3220 3221 3221 3222 3222 3223 3223 3224 3224 3224 3224 3225 3225 3225 3225 3226 3226 3226 3226 3225 3225 3225 3224 3223 3222 3222 3222 3222 3222 3222 3222 3222 3222 3222 3222 3222 3221 3221 3221 3221 3221 3221 3220 3220 3220 3219 3219 3219 3219 3218 3218 3218 3217 3217 3217 3217 3216 3216 3216 3216 3215 3215 3215 3215 3215 3215 3215 3215 3215 3214 3214 3213 3213 3212 3212 3211 3211 3210 3210 3209 3209 3208
3217 3217 3219 3219 3220 3221 3221 3222 3222 3223 3223 3223 3224 3224 3225 3225 3225 3226 3226 3226 3226 3226 3226 3226 3225 3224 3223 3223 3222 3222 3222 3222 3222 3222 3222 3222 3222 3222 3222 3221 3221 3221 3221 3221 3221 3220 3220 3220 3220 3219 3219 3219 3219 3218 3218 3218 3218 3218 3217 3217 3216 3216 3216 3215 3215 3215 3215 3214 3214 3214 3214 3213 3213 3213 3212 3211 3211 3210 3210 3209 3208 3208 3207 3207 3206
3215 3216 3217 3218 3219 3220 3220 3221 3222 3222 3223 3223 3224 3224 3225 3225 3225 3225 3226 3226 3226 3227 3227 3226 3226 3225 3224 3223 3223 3223 3222 3222 3222 3222 3222 3222 3222 3222 3222 3222 3221 3221 3221 3221 3221 3220 3220 3220 3220 3219 3219 3219 3219 3219 3218 3218 3218 3218 3217 3217 3216 3216 3215 3215 3215 3214 3214 3214 3213 3213 3212 3212 3212 3212 3211 3210 3210 3209 3208 3208 3207 3207 3206 3206 3205
3214 3215 3216 3217 3218 3219 3220 3220 3221 3222 3222 3223 3224 3224 3225 3225 3225 3225 3226 3226 3226 3227 3227 3226 3226 3225 3225 3224 3224 3223 3223 3223 3223 3223 3223 3222 3222 3222 3223 3223 3222 3221 3221 3221 3221 3220 3219 3219 3219 3219 3219 3219 3219 3219 3218 3218 3218 3217 3217 3216 3216 3216 3215 3215 3214 3214 3213 3213 3212 3212 3212 3211 3211 3211 3210 3210 3209 3208 3208 3207 3207 3206 3206 3205 3204
3213 3214 3215 3216 3217 3218 3219 3220 3220 3221 3222 3222 3223 3224 3224 3225 3225 3225 3226 3226 3226 3226 3226 3226 3226 3226 3225 3225 3225 3224 3224 3223 3223 3223 3223 3223 3222 3223 3224 3223 3222 3221 3221 3220 3220 3220 3220 3219 3219 3219 3219 3219 3218 3218 3218 3218 3217 3217 3217 3216 3216 3215 3215 3214 3214 3213 3213 3212 3212 3212 3211 3211 3211 3210 3210 3209 3209 3208 3207 3207 3206 3205 3205 3204 3203
3212 3212 3214 3215 3215 3216 3217 3218 3219 3220 3221 3222 3222 3223 3224 3224 3225 3225 3225 3226 3226 3226 3226 3226 3226 3226 3226 3225 3225 3225 3224 3224 3223 3223 3223 3223 3223 3223 3223 3223 3222 3221 3220 3220 3220 3220 3220 3219 3219 3219 3219 3218 3218 3218 3218 3217 3217 3217 3217 3216 3216 3215 3215 3214 3214 3213 3212 3212 3212 3212 3211 3211 3211 3210 3210 3209 3209 3208 3207 3206 3205 3204 3203 3203 3202
3211 3212 3213 3213 3214 3215 3216 3217 3218 3219 3220 3220 3221 3222 3223 3223 3224 3225 3225 3225 3225 3225 3225 3226 3226 3226 3226 3225 3225 3225 3225 3224 3224 3223 3223 3223 3222 3222 3222 3222 3222 3221 3220 3220 3220 3220 3219 3219 3219 3218 3218 3218 3218 3217 3217 3217 3217 3217 3216 3216 3215 3215 3215 3214 3214 3213 3213 3212 3212 3212 3211 3211 3211 3210 3209 3209 3208 3207 3206 3205 3204 3203 3202 3201 3200
3210 3211 3212 3212 3213 3214 3215 3216 3217 3218 3218 3219 3220 3220 3221 3222 3223 3224 3224 3225 3225 3225 3225 3225 3225 3226 3226 3226 3225 3225 3225 3225 3224 3224 3223 3223 3222 3222 3222 3222 3222 3221 3220 3220 3219 3219 3219 3218 3218 3217 3217 3217 3217 3217 3217 3216 3216 3216 3216 3215 3215 3214 3214 3214 3214 3213 3213 3212 3212 3211 3211 3211 3210 3209 3209 3208 3207 3206 3205 3204 3203 3202 3200 3199 3198
3209 3210 3211 3211 3212 3213 3214 3215 3215 3216 3217 3218 3218 3219 3220 3220 3221 3222 3223 3224 3225 3225 3225 3225 3225 3225 3225 3225 3225 3226 3225 3225 3225 3224 3224 3223 3222 3222 3222 3221 3221 3220 3220 3219 3219 3219 3218 3218 3217 3216 3216 3217 3216 3216 3216 3216 3215 3215 3215 3215 3214 3214 3214 3214 3213 3213 3212 3212 3211 3211 3210 3209 3209 3208 3208 3207 3206 3205 3204 3202 3201 3200 3199 3198 3196
3208 3209 3209 3210 3211 3211 3212 3213 3214 3215 3215 3216 3217 3218 3218 3219 3220 3221 3222 3223 3224 3224 3224 3224 3224 3224 3225 3225 3225 3225 3225 3225 3225 3224 3224 3223 3223 3222 3222 3221 3221 3220 3220 3219 3218 3218 3218 3217 3216 3216 3216 3216 3216 3215 3215 3215 3214 3214 3214 3214 3213 3213 3213 3213 3213 3212 3211 3211 3210 3209 3209 3208 3208 3207 3206 3205 3204 3203 3202 3201 3200 3198 3197 3196 3195
3206 3207 3208 3208 3209 3210 3211 3212 3212 3213 3214 3215 3216 3216 3217 3218 3218 3219 3220 3221 3222 3223 3223 3224 3224 3224 3224 3224 3224 3224 3225 3225 3225 3224 3224 3223 3223 3222 3222 3221 3221 3220 3220 3219 3218 3218 3217 3217 3216 3215 3215 3215 3215 3215 3214 3213 3213 3213 3213 3212 3212 3213 3212 3212 3212 3211 3211 3210 3209 3208 3207 3207 3206 3206 3205 3204 3203 3202 3200 3199 3198 3197 3196 3194 3193
3204 3205 3206 3207 3208 3208 3209 3210 3211 3212 3212 3213 3214 3215 3216 3216 3217 3218 3219 3220 3221 3222 3222 3223 3223 3223 3223 3223 3223 3223 3224 3224 3224 3224 3223 3223 3222 3222 3222 3221 3220 3220 3219 3219 3218 3218 3218 3217 3216 3215 3215 3215 3214 3214 3213 3212 3212 3211 3211 3211 3211 3211 3211 3211 3210 3210 3209 3208 3207 3206 3206 3205 3205 3204 3203 3202 3201 3199 3198 3197 3195 3194 3193 3192 3191
3202 3203 3204 3205 3206 3207 3207 3208 3209 3210 3210 3211 3212 3213 3214 3215 3216 3217 3217 3218 3219 3220 3221 3222 3222 3222 3222 3222 3222 3222 3222 3223 3223 3223 3222 3222 3222 3222 3221 3221 3220 3220 3219 3218 3218 3218 3217 3217 3216 3214 3214 3214 3213 3213 3212 3211 3210 3210 3210 3210 3209 3209 3209 3209 3208 3208 3207 3206 3205 3204 3204 3203 3203 3202 3200 3199 3198 3196 3195 3194 3192 3191 3190 3189 3188
3200 3201 3202 3203 3204 3205 3206 3206 3207 3207 3208 3209 3210 3211 3212 3213 3214 3215 3215 3216 3218 3218 3219 3220 3221 3221 3221 3221 3221 3221 3221 3221 3222 3222 3221 3221 3221 3221 3220 3220 3220 3219 3219 3218 3217 3217 3217 3216 3215 3214 3213 3213 3212 3211 3211 3210 3209 3208 3208 3208 3208 3208 3207 3207 3206 3205 3204 3204 3203 3202 3201 3201 3200 3199 3198 3196 3195 3193 3192 3190 3189 3188 3187 3186 3184
3198 3199 3200 3201 3202 3203 3204 3204 3205 3205 3206 3207 3208 3209 3210 3211 3212 3213 3214 3214 3216 3217 3217 3218 3219 3219 3220 3220 3220 3220 3220 3220 3220 3220 3220 3220 3220 3220 3219 3219 3219 3218 3218 3217 3217 3216 3216 3215 3214 3213 3212 3211 3210 3210 3209 3208 3208 3207 3207 3207 3206 3206 3205 3204 3204 3203 3203 3202 3201 3200 3199 3198 3198 3196 3195 3193 3192 3190 3189 3187 3186 3184 3183 3182 3181
3196 3197 3198 3199 3200 3201 3202 3202 3203 3203 3204 3205 3206 3206 3207 3208 3210 3211 3212 3212 3213 3215 3215 3216 3217 3218 3218 3219 3219 3219 3219 3219 3219 3219 3219 3219 3219 3218 3218 3218 3217 3217 3217 3216 3216 3215 3214 3214 3213 3212 3210 3209 3209 3208 3208 3207 3206 3206 3205 3205 3205 3204 3204 3203 3202 3201 3201 3200 3199 3198 3197 3196 3195 3193 3192 3190 3189 3187 3185 3184 3182 3180 3179 3177 3176
3193 3194 3195 3197 3198 3198 3199 3200 3201 3201 3201 3203 3203 3204 3205 3206 3207 3208 3209 3210 3211 3212 3213 3214 3215 3216 3216 3217 3217 3217 3218 3217 3217 3217 3217 3217 3217 3217 3217 3216 3216 3215 3215 3215 3214 3214 3213 3212 3211 3210 3209 3208 3207 3207 3206 3205 3205 3205 3204 3203 3203 3203 3202 3201 3200 3199 3199 3198 3197 3196 3195 3193 3192 3191 3189 3188 3186 3184 3182 3180 3179 3177 3175 3174 3172
3190 3191 3193 3194 3195 3196 3197 3197 3198 3199 3199 3200 3201 3202 3202 3203 3204 3205 3207 3207 3208 3210 3211 3212 3213 3213 3214 3214 3215 3215 3216 3216 3215 3215 3215 3215 3215 3215 3215 3215 3214 3214 3213 3213 3213 3212 3211 3211 3210 3209 3208 3207 3206 3205 3205 3204 3203 3203 3203 3202 3202 3201 3200 3200 3199 3197 3197 3196 3195 3194 3193 3191 3190 3189 3187 3185 3184 3181 3179 3178 3176 3174 3172 3171 3169
3187 3188 3190 3191 3192 3193 3194 3195 3196 3197 3197 3198 3199 3200 3200 3201 3202 3203 3204 3205 3206 3207 3208 3209 3210 3211 3211 3212 3212 3212 3213 3213 3213 3213 3213 3213 3213 3213 3213 3213 3213 3212 3211 3211 3211 3210 3210 3209 3208 3207 3206 3205 3205 3204 3204 3203 3202 3201 3201 3200 3200 3199 3199 3198 3197 3195 3195 3194 3193 3192 3191 3189 3188 3187 3185 3183 3181 3179 3177 3175 3173 3171 3170 3168 3167
3185 3185 3186 3188 3189 3190 3191 3193 3193 3194 3195 3195 3196 3197 3198 3198 3199 3200 3201 3202 3203 3204 3205 3206 3207 3208 3209 3209 3209 3209 3209 3210 3211 3211 3211 3211 3211 3211 3211 3211 3211 3210 3210 3209 3209 3209 3208 3207 3206 3205 3205 3204 3203 3203 3202 3202 3201 3200 3199 3199 3198 3198 3197 3196 3196 3194 3193 3191 3190 3189 3188 3187 3185 3184 3182 3181 3178 3176 3174 3172 3170 3168 3167 3166 3164
3182 3182 3183 3184 3186 3187 3188 3190 3190 3191 3192 3192 3193 3194 3195 3195 3196 3197 3198 3199 3200 3201 3202 3203 3204 3205 3206 3206 3207 3207 3206 3207 3208 3209 3209 3209 3209 3209 3209 3209 3209 3209 3208 3207 3207 3206 3206 3205 3204 3203 3203 3202 3202 3201 3201 3200 3199 3198 3198 3197 3196 3196 3195 3194 3194 3193 3192 3190 3188 3186 3185 3183 3181 3179 3178 3177 3175 3173 3171 3169 3167 3165 3164 3163 3162
3179 3180 3180 3181 3183 3184 3185 3186 3187 3188 3188 3189 3189 3190 3191 3192 3193 3193 3195 3195 3196 3197 3198 3200 3201 3202 3203 3203 3204 3204 3203 3204 3205 3206 3206 3207 3207 3207 3207 3207 3206 3206 3206 3206 3205 3204 3204 3203 3203 3202 3200 3200 3200 3200 3199 3198 3198 3197 3196 3195 3194 3193 3193 3192 3192 3191 3190 3189 3187 3185 3183 3181 3179 3177 3175 3173 3171 3169 3167 3166 3165 3164 3162 3161 3160
3176 3177 3178 3178 3179 3180 3182 3182 3184 3184 3184 3185 3186 3187 3188 3189 3190 3190 3191 3192 3193 3194 3195 3196 3197 3198 3199 3200 3201 3201 3200 3201 3202 3203 3203 3203 3204 3205 3205 3205 3204 3204 3204 3203 3203 3202 3202 3201 3200 3200 3198 3198 3198 3198 3197 3197 3196 3195 3194 3193 3192 3191 3190 3189 3189 3189 3188 3187 3185 3184 3182 3179 3177 3175 3173 3171 3169 3167 3165 3163 3162 3161 3160 3159 3158
3172 3174 3175 3175 3175 3176 3178 3179 3180 3180 3180 3181 3182 3183 3185 3186 3187 3187 3188 3189 3190 3190 3191 3193 3194 3195 3196 3196 3197 3197 3197 3198 3199 3200 3200 3200 3201 3202 3202 3202 3202 3201 3201 3201 3200 3199 3199 3199 3198 3197 3196 3195 3195 3195 3195 3195 3194 3193 3192 3191 3190 3189 3188 3187 3186 3185 3184 3184 3182 3181 3180 3177 3175 3173 3171 3169 3167 3165 3163 3161 3160 3158 3157 3156 3155
3169 3170 3172 3172 3172 3173 3174 3175 3176 3176 3177 3177 3178 3180 3181 3183 3184 3184 3185 3185 3187 3187 3188 3189 3190 3191 3192 3193 3193 3194 3194 3194 3195 3197 3198 3197 3197 3199 3199 3199 3198 3198 3198 3198 3197 3197 3196 3196 3195 3194 3193 3193 3193 3192 3192 3192 3191 3190 3190 3189 3188 3187 3185 3184 3183 3182 3181 3180 3179 3178 3177 3175 3173 3171 3169 3167 3165 3163 3161 3159 3158 3156 3155 3154 3152
3166 3167 3168 3169 3170 3170 3171 3172 3173 3173 3174 3174 3175 3176 3178 3179 3180 3181 3181 3182 3183 3184 3184 3185 3186 3188 3189 3189 3190 3190 3190 3190 3191 3193 3195 3194 3194 3195 3195 3195 3195 3195 3195 3195 3194 3193 3193 3193 3192 3191 3190 3190 3190 3189 3189 3189 3188 3188 3187 3186 3185 3184 3183 3182 3181 3179 3177 3177 3176 3175 3174 3173 3170 3167 3165 3163 3161 3159 3158 3157 3156 3154 3153 3151 3150
3163 3164 3165 3167 3167 3168 3168 3168 3169 3170 3170 3171 3171 3172 3174 3175 3177 3177 3177 3178 3178 3179 3180 3181 3182 3183 3184 3185 3185 3186 3186 3187 3188 3189 3191 3191 3190 3191 3191 3191 3191 3191 3191 3191 3191 3190 3190 3189 3189 3188 3187 3187 3186 3186 3186 3186 3185 3184 3184 3184 3182 3181 3180 3179 3178 3176 3174 3174 3173 3172 3171 3170 3167 3164 3162 3160 3158 3156 3154 3154 3153 3152 3151 3149 3148
3160 3160 3161 3163 3164 3165 3165 3165 3166 3166 3167 3167 3168 3169 3170 3172 3173 3174 3174 3174 3174 3175 3176 3176 3177 3178 3180 3180 3181 3181 3182 3182 3183 3185 3186 3187 3187 3187 3187 3187 3187 3187 3188 3188 3187 3187 3186 3185 3185 3185 3184 3184 3183 3182 3182 3182 3181 3181 3181 3181 3180 3179 3178 3177 3176 3175 3173 3171 3170 3169 3168 3167 3164 3162 3159 3157 3155 3154 3152 3151 3150 3150 3148 3147 3145
3156 3157 3158 3159 3160 3161 3162 3162 3162 3163 3163 3164 3164 3165 3167 3168 3169 3170 3170 3169 3169 3170 3171 3171 3172 3173 3175 3175 3176 3177 3177 3177 3178 3180 3181 3182 3183 3182 3182 3183 3183 3183 3183 3184 3184 3183 3183 3182 3181 3181 3180 3180 3179 3179 3179 3178 3178 3178 3178 3177 3177 3176 3175 3174 3173 3172 3170 3168 3167 3167 3166 3164 3162 3160 3157 3155 3153 3151 3150 3148 3147 3147 3146 3144 3143
3152 3153 3154 3155 3156 3157 3158 3159 3159 3159 3160 3160 3161 3162 3163 3165 3165 3165 3166 3165 3165 3165 3165 3166 3167 3169 3170 3170 3171 3171 3172 3173 3174 3175 3177 3178 3178 3178 3178 3178 3179 3178 3179 3180 3180 3179 3179 3178 3178 3177 3177 3176 3176 3176 3176 3175 3175 3175 3174 3174 3174 3173 3172 3171 3170 3169 3167 3164 3163 3164 3163 3162 3160 3158 3156 3153 3151 3149 3148 3147 3145 3145 3144 3142 3141
3149 3150 3150 3151 3152 3153 3154 3155 3155 3156 3156 3157 3157 3158 3158 3160 3161 3161 3161 3161 3161 3161 3161 3161 3162 3163 3164 3165 3166 3166 3167 3168 3169 3171 3173 3172 3172 3173 3174 3174 3174 3174 3174 3175 3176 3176 3175 3175 3174 3174 3173 3173 3173 3173 3173 3172 3172 3171 3171 3170 3170 3170 3169 3168 3167 3166 3164 3161 3158 3159 3159 3158 3156 3155 3153 3151 3149 3147 3146 3145 3143 3142 3141 3140 3138
3146 3146 3147 3148 3148 3149 3149 3150 3151 3152 3153 3153 3153 3154 3154 3155 3156 3157 3157 3157 3156 3157 3157 3157 3157 3157 3158 3160 3160 3161 3162 3163 3165 3167 3168 3167 3167 3168 3169 3170 3169 3169 3170 3171 3171 3171 3172 3171 3170 3170 3170 3170 3169 3169 3169 3169 3168 3167 3167 3167 3167 3166 3165 3165 3164 3162 3162 3160 3156 3156 3156 3155 3153 3152 3150 3149 3147 3146 3144 3143 3141 3140 3138 3137 3135
3142 3142 3143 3143 3144 3144 3145 3145 3146 3147 3148 3148 3149 3149 3150 3150 3151 3152 3152 3152 3152 3152 3152 3152 3152 3152 3152 3153 3154 3156 3157 3158 3159 3161 3163 3163 3162 3162 3163 3164 3165 3165 3166 3166 3165 3166 3168 3168 3167 3166 3166 3166 3166 3165 3165 3165 3164 3164 3164 3163 3163 3163 3162 3162 3161 3159 3159 3158 3155 3155 3154 3152 3150 3149 3147 3145 3144 3144 3143 3141 3139 3138 3136 3135 3132